Regional Weather Roundup
Issued by NWS

Home | Current Version | Previous Version | Graphics & Text | Print | Product List | Glossary On
Versions: 1 2 3 4 5 6 7 8 9 10 11 12 13 14 15 16 17 18 19 20 21 22 23 24 25 26 27 28 29 30 31 32 33 34 35 36 37 38 39 40 41 42 43 44 45 46 47 48 49 50
000
ASUS43 KLMK 260202
RWRKY
KENTUCKY REGIONAL WEATHER ROUNDUP
NATIONAL WEATHER SERVICE LOUISVILLE KY
1000 PM EDT MON SEP 25 2017

NOTE "FAIR" INDICATES FEW OR NO CLOUDS BELOW 12,000 FEET
WITH NO SIGNIFICANT WEATHER AND/OR OBSTRUCTIONS TO VISIBILITY.

KYZ001>023-026-027-061>063-070>075-260300-
WESTERN AND SOUTH CENTRAL KENTUCKY

CITY           SKY/WX    TMP DP  RH WIND       PRES   REMARKS
PADUCAH        CLEAR     71  65  81 CALM      29.94R
HENDERSON      CLEAR     71  68  90 CALM      29.96R
OWENSBORO      CLEAR     76  68  76 CALM      29.96R
HOPKINSVILLE   CLEAR     74  66  76 CALM      29.96R
BOWLING GREEN  CLEAR     75  69  81 CALM      29.97R
GLASGOW        NOT AVBL
$$

KYZ024-025-028>034-038-045-046-053-260300-
NORTH CENTRAL KENTUCKY

CITY           SKY/WX    TMP DP  RH WIND       PRES   REMARKS
LOUISVILLE/SDF CLEAR     78  65  63 SE5       29.97R
LOUISVILLE/LOU CLEAR     76  68  76 E5        29.98R
FORT KNOX      CLEAR     73  68  83 CALM      29.96S
$$

KYZ035>037-039>044-047>052-055>060-089>105-260300-
NORTHEAST KENTUCKY

CITY           SKY/WX    TMP DP  RH WIND       PRES   REMARKS
LEXINGTON      CLEAR     75  64  68 E5        30.01R
COVINGTON      PTCLDY    73  66  78 S3        29.99S
FRANKFORT      CLEAR     69  63  81 CALM      29.99R
$$

KYZ054-064>069-076>088-106>120-260300-
SOUTHEAST KENTUCKY

CITY           SKY/WX    TMP DP  RH WIND       PRES   REMARKS
JACKSON        CLEAR     74  62  66 CALM      30.02S
LONDON         CLEAR     68  65  90 CALM      30.01S
SOMERSET       NOT AVBL
MIDDLESBORO    CLEAR     67  64  91 CALM      30.02S
MONTICELLO     CLEAR     63  61  93 CALM      30.01S
$$




USA.gov is the U.S. government's official web portal to all federal, state and local government web resources and services.